Presure
156 156 151 160 166 163 119 106 101 97 94 97 96 98 101 136 131 108 109 167 109 138 115 104 110 106 104 104 102 105 123 135 126
128 150 154 155 113 161 136 123 115 114 104 126 128 134 108 109 132 130 126 105 125 111 121 122 101 103 121 119 116 108 124 122 124
137 182 143 136 153 141 125 120 109 109 109 110 110 110 113 133 127 130 124 104 102 99 100 116 117 106 108 108 114 97 118 119 110
143 132 135 145 188 155 161 182 111 157 163 162 144 123 125 129 125 144 141 130 130 130 122 114 102 95 123 98 101 104 113 128 121
106 180 155 144 121 136 175 155 119 141 106 104 147 147 142 141 104 106 107 135 132 100 128 97 97 101 114 97 121 123 112 120 127
182 162 140 133 141 145 126 131 131 134 138 124 134 140 110 102 111 106 140 104 108 126 96 101 105 98 149 134 154 156 142 146 153
162 160 135 155 142 154 161 179 168 142 137 134 139 133 118 139 133 135 100 138 136 136 98 137 144 134 153 160 144 151 175 131 137
142 140 193 187 138 174 176 145 131 128 139 140 175 135 102 129 106 104 101 106 130 186 187 182 177 181 140 129 123 176 182 168 128
110 132 172 130 148 180 178 178 134 173 148 132 128 133 134 129 130 132 133 189 180 185 196 192 182 123 125 186 182 173 174 175 92
94 132 176 190 174 184 178 169 166 171 183 185 178 166 130 130 133 177 187 185 182 190 189 183 122 167 182 180 118 90 89 144 176
186 174 91 116 186 157 127 126 161 172 179 187 190 141 118 190 175 180 180 178 173 170 176 175 174 123 92 89 90 174 163 178 165
154 147 188 194 193 185 184 148 181 180 179 189 109 184 179 189 184 198 196 180 172 174 160 149 167 95 96 180 179 187 182 181 174
156 152 149 167 163 159 146 180 183 191 173 188 188 191 168 179 197 178 201 194 154 175 107 189 190 196 193 191 196 191 191 184 176
174 167 169 160 173 167 182 154 186 160 171 168 159 180 176 200 191 166 187 179 190 193 204 200 200 199 196 182 191 192 190 192 179
200 176 178 171 163 170 171 176 189 164 164 181 177 195 179 181 201 184 180 182 186 188 193 190 183 191 184 166 189 194 166 194 199
178 177 189 181 183 178 179 176 179 172 166 180 167 176 176 172 182 192 169 190 190 172 190 184 193 183 187 195 186 185 184 183 192
191 183 186 199 185 178 177 203 203 192 160 185 186 173 184 177 142 166 164 185 182 193 190 185 187 183 192 159 181 198 177 176 193
203 199 191 182 214 201 213 144 195 182 183 167 185 178 163 189 187 188 196 190 177 184 159 186 175 173 174 166 196 202 180 172 177
193 200 187 187 186 163 200 170 173 178 203 159 184 169 191 174 202 211 191 202 161 201 173 175 192 174 191 167 180 173 177 180 186
191 190 194 183 185 187 190 189 191 226 183 186 173 189 179 198 199 160 182 174 186 172 200 190 166 184 197 182 181 173 201 167 195
Wind_Speed
36 36 34 34 35 37 35 34 32 29 28 31 30 32 34 31 31 32 31 28 30 29 30 29 32 32 32 33 33 36 41 41 42
40 37 37 36 36 38 37 35 36 35 37 35 34 32 33 33 32 34 35 32 36 34 37 36 33 34 40 41 42 40 44 45 45
41 47 40 39 39 40 39 39 38 37 38 37 36 35 36 37 36 37 38 34 33 34 34 39 41 37 39 40 44 38 47 48 46
44 43 44 42 41 42 42 43 39 41 41 41 41 39 40 41 39 39 40 42 43 43 43 41 38 38 47 39 42 44 49 52 52
39 49 47 45 47 45 41 45 39 41 39 40 43 43 42 42 36 37 38 45 48 37 48 38 39 42 49 43 53 53 52 55 57
54 52 49 48 48 48 50 50 49 46 44 43 46 45 40 38 41 40 47 39 43 47 40 43 46 43 56 58 59 59 59 62 62
55 53 51 51 50 50 50 51 51 50 48 49 49 47 47 49 50 50 41 52 53 55 43 58 60 54 61 60 61 61 61 61 61
55 54 53 52 53 51 52 55 54 52 51 50 52 52 44 52 44 45 44 47 56 51 55 58 58 58 60 60 58 59 60 61 65
42 53 55 51 55 53 53 54 57 56 54 53 54 56 56 57 57 57 57 53 55 52 51 53 55 60 61 58 59 59 60 61 56
44 50 59 58 57 57 56 56 58 58 55 57 54 56 58 59 61 58 54 54 54 52 53 55 61 59 58 60 52 52 52 60 62
62 61 42 47 60 55 50 52 62 60 60 58 55 53 52 56 59 59 59 58 58 60 59 59 60 55 50 51 56 62 63 64 64
56 55 62 62 59 60 58 60 63 62 62 60 50 58 59 58 60 54 55 61 62 62 62 59 63 54 56 65 65 64 66 67 67
58 57 58 63 62 59 54 63 65 63 63 62 61 60 61 55 58 62 52 56 56 55 51 55 62 59 60 62 61 65 66 67 66
69 64 65 63 67 64 68 61 68 64 63 64 63 63 62 58 61 62 62 63 61 58 53 55 56 57 58 65 63 66 68 69 66
78 72 74 74 65 68 67 68 69 68 69 66 68 63 66 64 55 64 67 68 66 63 60 62 67 62 67 61 67 68 61 70 68
78 79 84 83 79 75 75 75 75 73 70 74 67 71 70 72 70 65 68 65 64 58 66 69 64 70 70 65 74 73 69 67 71
90 88 88 88 81 77 77 77 69 74 67 79 67 67 72 71 58 66 68 71 70 65 69 72 71 69 71 58 68 76 60 60 72
98 98 84 88 82 83 79 58 77 81 80 68 81 72 66 77 72 75 72 73 73 73 61 72 71 68 71 73 79 78 63 59 59
95 96 86 95 93 69 97 76 75 78 82 64 81 72 83 72 79 74 77 72 63 75 69 74 77 74 78 60 74 64 67 69 71
95 93 95 92 92 95 95 96 90 85 79 87 73 86 76 84 79 67 76 73 77 72 81 81 66 84 84 81 77 65 85 68 85
Wind_Direction
245 245 242 245 247 248 245 251 254 256 257 259 262 264 264 251 258 270 272 256 278 268 277 282 286 287 291 291 293 295 288 281 286
242 245 246 244 244 245 248 247 249 250 255 256 254 255 262 264 258 263 267 271 270 278 277 278 282 285 282 284 287 291 287 289 291
241 245 246 248 245 246 247 250 250 252 255 256 258 258 263 263 265 264 269 269 271 274 277 280 281 282 283 287 287 289 288 289 292
242 241 245 246 248 248 247 248 250 249 248 249 254 264 265 266 268 264 264 269 271 271 276 279 280 284 281 289 289 289 291 284 286
258 247 245 247 251 247 251 250 251 250 255 259 254 258 260 263 263 266 269 270 271 272 272 278 283 285 283 291 282 283 290 285 285
245 245 243 244 247 248 253 253 255 255 255 259 260 260 263 264 266 269 268 273 275 273 280 280 281 285 274 279 274 275 280 281 281
244 246 245 248 248 251 250 251 253 252 254 256 258 260 263 262 266 268 271 270 271 273 277 274 273 277 274 275 278 278 276 286 286
245 247 248 248 248 250 251 252 254 255 255 255 257 259 266 263 268 271 272 274 271 265 266 268 271 271 278 283 286 275 275 278 288
249 254 249 254 250 250 251 253 255 257 255 254 257 259 261 264 265 265 266 266 268 268 266 268 271 282 283 273 274 277 277 278 291
249 246 249 248 252 250 252 255 257 260 260 260 260 261 262 266 267 265 265 267 269 268 269 270 281 274 273 274 284 288 291 283 280
245 246 255 251 250 251 255 259 259 260 261 262 261 264 267 263 266 266 266 267 269 271 271 271 273 279 285 290 291 278 282 279 284
256 250 246 245 247 251 251 257 256 258 261 261 259 263 265 264 264 263 265 267 270 270 274 277 276 289 290 277 278 277 278 279 282
253 250 253 256 257 257 257 257 257 255 260 260 262 262 265 263 264 268 265 266 272 271 285 271 271 271 272 273 274 276 277 279 284
253 255 253 257 255 256 253 260 256 261 261 265 268 264 266 262 264 268 266 271 267 268 268 270 269 271 272 277 275 276 278 279 286
248 253 252 255 259 258 258 257 253 261 265 261 264 261 265 268 263 267 271 270 270 270 270 271 274 271 273 287 277 276 280 280 281
250 252 250 251 254 256 256 259 258 261 264 263 266 268 268 271 268 265 278 267 269 276 270 276 271 279 277 273 280 285 289 294 288
245 248 250 248 254 255 256 249 250 253 264 261 255 266 267 270 267 275 280 269 272 268 269 275 276 278 275 287 289 282 292 289 293
242 245 249 254 248 251 249 254 250 257 258 258 264 265 270 266 267 267 259 269 281 279 280 279 283 284 290 287 285 284 284 289 285
243 246 247 250 254 254 255 254 258 259 251 264 265 269 265 272 261 256 272 262 279 269 280 286 278 289 286 282 294 288 295 293 291
241 243 243 249 252 255 258 261 260 243 259 261 265 264 270 269 261 272 275 279 278 283 274 277 283 290 282 294 293 291 289 289 297